Port Imperial New Jersey — WBR3133 — position and weather

sailwx.info

Track history (hours):
 
Tides and Currents Weather Stations Pressure Air Temp Water Temp Dewpoint Dewpoint Depression Visibility Wind Speed Wind Dir Waves Ship Positions

Port Imperial New Jersey

Owner: PORT IMPERIAL FERRY CORP, WEEHAWKEN, NJ. More information available from US FCC via Universal Licensing System and Coast Guard Vessel Documentation Center.

Last reported at 2014-Oct-30 12:33 UTC. Time now 2014-Oct-30 13:04 UTC.
Position N 40°46' W 074°01'.

Length 31 m.

Type: Passenger vessel. MMSI: 366990550.

Date/timePositionNaut miles runAvg speedWind from/ knotsBaromVisibWave heightAir tempDewpointWater temp
2014-Oct-30 12:33N 40°46' W 074°01'0 0.1
2014-Oct-30 11:33N 40°46' W 074°01'1 0.7
2014-Oct-30 10:33N 40°46' W 074°01'0 0.0
2014-Oct-29 16:34N 40°46' W 074°01'1 0.6
2014-Oct-29 15:33N 40°46' W 074°00'0 0.0
2014-Oct-29 14:33N 40°46' W 074°00'1 0.8
2014-Oct-29 13:33N 40°46' W 074°01'3 2.7
2014-Oct-29 12:33N 40°44' W 074°01'2 1.9
2014-Oct-29 11:33N 40°42' W 074°00'2 1.7
2014-Oct-29 10:33N 40°43' W 074°01'1 0.1
2014-Oct-28 23:33N 40°42' W 074°01'2 2.1
2014-Oct-28 22:33N 40°44' W 074°02'2 2.3
2014-Oct-28 21:33N 40°42' W 074°01'1 0.7
2014-Oct-28 20:34N 40°42' W 074°01'2 1.7
2014-Oct-28 19:34N 40°44' W 074°02'1 1.3
2014-Oct-28 18:33N 40°45' W 074°01'1 0.3
2014-Oct-28 14:17N 40°46' W 074°00'1 1.2
2014-Oct-28 13:33N 40°46' W 074°01'0 0.1
2014-Oct-28 12:33N 40°46' W 074°00'0 0.0
2014-Oct-28 11:33N 40°46' W 074°00'0 0.2
2014-Oct-28 10:33N 40°46' W 074°00'1 1.0
2014-Oct-28 09:33N 40°47' W 074°01'1 0.1
2014-Oct-27 23:33N 40°45' W 074°01'0 0.5
2014-Oct-27 22:34N 40°45' W 074°01'1 0.5
2014-Oct-27 21:33N 40°45' W 074°01'0 0.4
2014-Oct-27 20:33N 40°45' W 074°01'0 0.1
2014-Oct-27 19:34N 40°45' W 074°01'0 0.0
2014-Oct-27 18:34N 40°45' W 074°01'1 0.2
2014-Oct-27 15:04N 40°46' W 074°01'3 6.1
2014-Oct-27 14:34N 40°43' W 074°01'3 2.8
2014-Oct-27 13:33N 40°46' W 074°00'1 0.8
2014-Oct-27 12:33N 40°46' W 074°01'0 0.0
2014-Oct-27 11:33N 40°45' W 074°01'1 0.1
2014-Oct-26 16:33N 40°47' W 074°01'1 1.0
2014-Oct-26 15:33N 40°46' W 074°00'0 0.1
2014-Oct-26 14:33N 40°46' W 074°00'1 1.0
2014-Oct-26 13:33N 40°47' W 074°01'0 0.0
2014-Oct-26 12:33N 40°47' W 074°01'0 0.0
2014-Oct-26 11:33N 40°47' W 074°01'0 0.0
2014-Oct-24 23:27N 40°47' W 074°01'4 4.5
2014-Oct-24 22:33N 40°43' W 073°58'3 3.2
2014-Oct-24 21:33N 40°46' W 074°01'3 3.4
2014-Oct-24 20:33N 40°42' W 073°59'3 3.2
2014-Oct-24 19:33N 40°45' W 074°01'0 0.5
2014-Oct-24 18:33N 40°46' W 074°00'1 0.3
2014-Oct-24 15:33N 40°46' W 074°01'1 1.2
2014-Oct-24 14:34N 40°45' W 074°01'1 0.5
2014-Oct-24 13:34N 40°46' W 074°01'0 0.1
2014-Oct-24 12:34N 40°46' W 074°00'0 0.2
2014-Oct-24 11:34N 40°46' W 074°01'1 0.8
2014-Oct-24 10:33N 40°46' W 074°01'0 0.0
2014-Oct-24 09:33N 40°46' W 074°01'0 0.0
2014-Oct-24 08:33N 40°46' W 074°01'0 0.0
2014-Oct-24 07:33N 40°46' W 074°01'0 0.0
2014-Oct-24 06:33N 40°46' W 074°01'0 0.0
2014-Oct-24 05:33N 40°46' W 074°01'0 0.0
2014-Oct-24 04:33N 40°46' W 074°01'0 0.0
2014-Oct-24 03:34N 40°46' W 074°01'0 0.0
2014-Oct-24 02:34N 40°46' W 074°01'0 0.0
2014-Oct-24 01:33N 40°46' W 074°01'0 0.0
2014-Oct-24 00:33N 40°46' W 074°01'0 0.0
2014-Oct-23 23:33N 40°46' W 074°01'0 0.0
2014-Oct-23 22:33N 40°46' W 074°01'0 0.0
2014-Oct-23 21:33N 40°46' W 074°01'0 0.0
2014-Oct-23 20:33N 40°46' W 074°01'0 0.0
2014-Oct-23 19:33N 40°46' W 074°01'0 0.0
2014-Oct-23 18:33N 40°46' W 074°01'0 0.0
2014-Oct-23 17:33N 40°46' W 074°01'1 0.8
2014-Oct-23 16:33N 40°45' W 074°01'0 0.2
2014-Oct-23 15:32N 40°46' W 074°00'0 0.0
2014-Oct-23 14:33N 40°46' W 074°00'1 0.7
2014-Oct-23 13:33N 40°45' W 074°01'0 0.0
2014-Oct-23 12:33N 40°45' W 074°01'0 0.4
2014-Oct-23 11:34N 40°46' W 074°01'1 0.7
2014-Oct-23 10:33N 40°46' W 074°01'1 0.0
2014-Oct-22 16:33N 40°46' W 074°00'0 0.2
2014-Oct-22 15:33N 40°46' W 074°00'1 0.7
2014-Oct-22 14:25N 40°46' W 074°01'1 1.1
2014-Oct-22 13:33N 40°45' W 074°01'0 0.0
2014-Oct-22 12:34N 40°45' W 074°01'0 0.5
2014-Oct-22 11:34N 40°46' W 074°01'1 0.0
2014-Oct-21 20:33N 40°46' W 074°01'0 0.0
2014-Oct-21 15:29N 40°46' W 074°01'2 2.2
2014-Oct-21 14:33N 40°44' W 074°01'1 1.4
2014-Oct-21 13:33N 40°46' W 074°00'0 0.1
2014-Oct-21 12:33N 40°46' W 074°01'0 0.1
2014-Oct-21 11:33N 40°46' W 074°00'1 0.7
2014-Oct-21 10:33N 40°46' W 074°01'0 0.0
2014-Oct-20 14:18N 40°46' W 074°01'1 0.9
2014-Oct-20 13:33N 40°46' W 074°00'  
Track history (hours):
 
Tides and Currents Weather Stations Pressure Air Temp Water Temp Dewpoint Dewpoint Depression Visibility Wind Speed Wind Dir Waves Ship Positions

Port Imperial New Jersey

Owner: PORT IMPERIAL FERRY CORP, WEEHAWKEN, NJ. More information available from US FCC via Universal Licensing System and Coast Guard Vessel Documentation Center.

Last reported at 2014-Oct-30 12:33 UTC. Time now 2014-Oct-30 13:04 UTC.
Position N 40°46' W 074°01'.

Length 31 m.

Type: Passenger vessel. MMSI: 366990550.

Date/timePositionNaut miles runAvg speedWind from/ knotsBaromVisibWave heightAir tempDewpointWater temp
2014-Oct-30 12:33N 40°46' W 074°01'0 0.1
2014-Oct-30 11:33N 40°46' W 074°01'1 0.7
2014-Oct-30 10:33N 40°46' W 074°01'0 0.0
2014-Oct-29 16:34N 40°46' W 074°01'1 0.6
2014-Oct-29 15:33N 40°46' W 074°00'0 0.0
2014-Oct-29 14:33N 40°46' W 074°00'1 0.8
2014-Oct-29 13:33N 40°46' W 074°01'3 2.7
2014-Oct-29 12:33N 40°44' W 074°01'2 1.9
2014-Oct-29 11:33N 40°42' W 074°00'2 1.7
2014-Oct-29 10:33N 40°43' W 074°01'1 0.1
2014-Oct-28 23:33N 40°42' W 074°01'2 2.1
2014-Oct-28 22:33N 40°44' W 074°02'2 2.3
2014-Oct-28 21:33N 40°42' W 074°01'1 0.7
2014-Oct-28 20:34N 40°42' W 074°01'2 1.7
2014-Oct-28 19:34N 40°44' W 074°02'1 1.3
2014-Oct-28 18:33N 40°45' W 074°01'1 0.3
2014-Oct-28 14:17N 40°46' W 074°00'1 1.2
2014-Oct-28 13:33N 40°46' W 074°01'0 0.1
2014-Oct-28 12:33N 40°46' W 074°00'0 0.0
2014-Oct-28 11:33N 40°46' W 074°00'0 0.2
2014-Oct-28 10:33N 40°46' W 074°00'1 1.0
2014-Oct-28 09:33N 40°47' W 074°01'1 0.1
2014-Oct-27 23:33N 40°45' W 074°01'0 0.5
2014-Oct-27 22:34N 40°45' W 074°01'1 0.5
2014-Oct-27 21:33N 40°45' W 074°01'0 0.4
2014-Oct-27 20:33N 40°45' W 074°01'0 0.1
2014-Oct-27 19:34N 40°45' W 074°01'0 0.0
2014-Oct-27 18:34N 40°45' W 074°01'1 0.2
2014-Oct-27 15:04N 40°46' W 074°01'3 6.1
2014-Oct-27 14:34N 40°43' W 074°01'3 2.8
2014-Oct-27 13:33N 40°46' W 074°00'1 0.8
2014-Oct-27 12:33N 40°46' W 074°01'0 0.0
2014-Oct-27 11:33N 40°45' W 074°01'1 0.1
2014-Oct-26 16:33N 40°47' W 074°01'1 1.0
2014-Oct-26 15:33N 40°46' W 074°00'0 0.1
2014-Oct-26 14:33N 40°46' W 074°00'1 1.0
2014-Oct-26 13:33N 40°47' W 074°01'0 0.0
2014-Oct-26 12:33N 40°47' W 074°01'0 0.0
2014-Oct-26 11:33N 40°47' W 074°01'0 0.0
2014-Oct-24 23:27N 40°47' W 074°01'4 4.5
2014-Oct-24 22:33N 40°43' W 073°58'3 3.2
2014-Oct-24 21:33N 40°46' W 074°01'3 3.4
2014-Oct-24 20:33N 40°42' W 073°59'3 3.2
2014-Oct-24 19:33N 40°45' W 074°01'0 0.5
2014-Oct-24 18:33N 40°46' W 074°00'1 0.3
2014-Oct-24 15:33N 40°46' W 074°01'1 1.2
2014-Oct-24 14:34N 40°45' W 074°01'1 0.5
2014-Oct-24 13:34N 40°46' W 074°01'0 0.1
2014-Oct-24 12:34N 40°46' W 074°00'0 0.2
2014-Oct-24 11:34N 40°46' W 074°01'1 0.8
2014-Oct-24 10:33N 40°46' W 074°01'0 0.0
2014-Oct-24 09:33N 40°46' W 074°01'0 0.0
2014-Oct-24 08:33N 40°46' W 074°01'0 0.0
2014-Oct-24 07:33N 40°46' W 074°01'0 0.0
2014-Oct-24 06:33N 40°46' W 074°01'0 0.0
2014-Oct-24 05:33N 40°46' W 074°01'0 0.0
2014-Oct-24 04:33N 40°46' W 074°01'0 0.0
2014-Oct-24 03:34N 40°46' W 074°01'0 0.0
2014-Oct-24 02:34N 40°46' W 074°01'0 0.0
2014-Oct-24 01:33N 40°46' W 074°01'0 0.0
2014-Oct-24 00:33N 40°46' W 074°01'0 0.0
2014-Oct-23 23:33N 40°46' W 074°01'0 0.0
2014-Oct-23 22:33N 40°46' W 074°01'0 0.0
2014-Oct-23 21:33N 40°46' W 074°01'0 0.0
2014-Oct-23 20:33N 40°46' W 074°01'0 0.0
2014-Oct-23 19:33N 40°46' W 074°01'0 0.0
2014-Oct-23 18:33N 40°46' W 074°01'0 0.0
2014-Oct-23 17:33N 40°46' W 074°01'1 0.8
2014-Oct-23 16:33N 40°45' W 074°01'0 0.2
2014-Oct-23 15:32N 40°46' W 074°00'0 0.0
2014-Oct-23 14:33N 40°46' W 074°00'1 0.7
2014-Oct-23 13:33N 40°45' W 074°01'0 0.0
2014-Oct-23 12:33N 40°45' W 074°01'0 0.4
2014-Oct-23 11:34N 40°46' W 074°01'1 0.7
2014-Oct-23 10:33N 40°46' W 074°01'1 0.0
2014-Oct-22 16:33N 40°46' W 074°00'0 0.2
2014-Oct-22 15:33N 40°46' W 074°00'1 0.7
2014-Oct-22 14:25N 40°46' W 074°01'1 1.1
2014-Oct-22 13:33N 40°45' W 074°01'0 0.0
2014-Oct-22 12:34N 40°45' W 074°01'0 0.5
2014-Oct-22 11:34N 40°46' W 074°01'1 0.0
2014-Oct-21 20:33N 40°46' W 074°01'0 0.0
2014-Oct-21 15:29N 40°46' W 074°01'2 2.2
2014-Oct-21 14:33N 40°44' W 074°01'1 1.4
2014-Oct-21 13:33N 40°46' W 074°00'0 0.1
2014-Oct-21 12:33N 40°46' W 074°01'0 0.1
2014-Oct-21 11:33N 40°46' W 074°00'1 0.7
2014-Oct-21 10:33N 40°46' W 074°01'0 0.0
2014-Oct-20 14:18N 40°46' W 074°01'1 0.9
2014-Oct-20 13:33N 40°46' W 074°00'  

Dump ship's entire track history